TimeCDT,TemperatureF,Dew PointF,Humidity,Sea Level PressureIn,VisibilityMPH,Wind Direction,Wind SpeedMPH,Gust SpeedMPH,PrecipitationIn,Events,Conditions,WindDirDegrees,DateUTC
12:53 AM,80.1,75.0,85,29.94,9.0,SSE,3.5,-,N/A,,Clear,160,2013-08-17 05:53:00
1:53 AM,80.1,75.0,85,29.93,9.0,ESE,3.5,-,N/A,,Scattered Clouds,120,2013-08-17 06:53:00
2:06 AM,80.6,75.2,84,29.95,9.0,Calm,Calm,-,N/A,,Mostly Cloudy,0,2013-08-17 07:06:00
2:35 AM,80.6,75.2,84,29.94,10.0,East,4.6,-,N/A,,Scattered Clouds,80,2013-08-17 07:35:00
2:53 AM,81.0,75.0,82,29.92,10.0,East,4.6,-,N/A,,Mostly Cloudy,80,2013-08-17 07:53:00
3:11 AM,80.6,75.2,84,29.94,10.0,East,8.1,-,N/A,,Scattered Clouds,80,2013-08-17 08:11:00
3:53 AM,80.1,75.9,87,29.91,8.0,ENE,10.4,-,N/A,,Partly Cloudy,70,2013-08-17 08:53:00
4:01 AM,80.6,75.2,84,29.93,8.0,ENE,11.5,-,N/A,,Partly Cloudy,70,2013-08-17 09:01:00
4:26 AM,78.8,75.2,89,29.92,7.0,NE,13.8,-,N/A,,Mostly Cloudy,50,2013-08-17 09:26:00
4:44 AM,78.8,75.2,89,29.92,7.0,NE,13.8,-,N/A,,Scattered Clouds,50,2013-08-17 09:44:00
4:53 AM,79.0,75.0,88,29.90,7.0,ENE,13.8,-,N/A,,Partly Cloudy,60,2013-08-17 09:53:00
5:30 AM,78.8,75.2,89,29.93,8.0,NE,15.0,-,N/A,,Mostly Cloudy,50,2013-08-17 10:30:00
5:41 AM,78.8,75.2,89,29.93,8.0,NNE,16.1,-,N/A,,Mostly Cloudy,30,2013-08-17 10:41:00
5:53 AM,78.1,75.0,90,29.91,7.0,NNE,12.7,-,0.00,Rain,Light Rain,30,2013-08-17 10:53:00
6:13 AM,78.8,75.2,89,29.94,6.0,NNE,15.0,-,0.00,Rain,Light Rain,30,2013-08-17 11:13:00
6:53 AM,78.1,73.9,87,29.92,7.0,NE,13.8,-,0.00,,Scattered Clouds,40,2013-08-17 11:53:00
7:20 AM,77.0,73.4,89,29.95,6.0,East,18.4,24.2,N/A,,Mostly Cloudy,100,2013-08-17 12:20:00
7:53 AM,77.0,73.9,90,29.94,7.0,East,11.5,-,N/A,,Scattered Clouds,80,2013-08-17 12:53:00
8:53 AM,78.1,73.9,87,29.95,6.0,ENE,11.5,-,N/A,,Scattered Clouds,60,2013-08-17 13:53:00
9:00 AM,78.8,73.4,83,29.97,6.0,ENE,12.7,-,N/A,,Mostly Cloudy,60,2013-08-17 14:00:00
9:53 AM,78.1,73.0,84,29.96,7.0,ENE,12.7,-,N/A,,Mostly Cloudy,70,2013-08-17 14:53:00
10:53 AM,80.1,73.9,81,29.96,8.0,ENE,13.8,-,N/A,,Mostly Cloudy,60,2013-08-17 15:53:00
11:27 AM,80.6,73.4,79,29.98,8.0,ENE,12.7,-,N/A,,Mostly Cloudy,60,2013-08-17 16:27:00
11:53 AM,82.0,73.9,76,29.95,10.0,ENE,16.1,-,N/A,,Scattered Clouds,60,2013-08-17 16:53:00
12:16 PM,82.4,73.4,74,29.97,10.0,ENE,13.8,-,N/A,,Mostly Cloudy,60,2013-08-17 17:16:00
12:53 PM,82.0,73.0,74,29.96,10.0,East,17.3,-,N/A,,Overcast,90,2013-08-17 17:53:00
1:46 PM,78.8,75.2,89,29.97,1.8,ENE,10.4,20.7,0.05,Rain,Heavy Rain,60,2013-08-17 18:46:00
1:53 PM,78.1,75.0,90,29.95,2.0,East,12.7,-,0.07,Rain,Rain,80,2013-08-17 18:53:00
2:02 PM,78.8,73.4,83,29.97,5.0,East,15.0,23.0,0.00,Rain,Light Rain,90,2013-08-17 19:02:00
2:15 PM,80.6,73.4,79,29.97,10.0,East,13.8,-,0.00,,Overcast,90,2013-08-17 19:15:00
2:53 PM,82.0,73.0,74,29.94,10.0,East,17.3,-,0.00,,Scattered Clouds,80,2013-08-17 19:53:00
3:53 PM,82.0,72.0,71,29.93,10.0,East,19.6,-,N/A,,Mostly Cloudy,80,2013-08-17 20:53:00
4:05 PM,80.6,73.4,79,29.95,10.0,East,19.6,-,N/A,,Mostly Cloudy,100,2013-08-17 21:05:00
4:16 PM,80.6,71.6,74,29.95,10.0,East,12.7,-,N/A,,Mostly Cloudy,100,2013-08-17 21:16:00
4:36 PM,80.6,71.6,74,29.95,10.0,ESE,13.8,-,N/A,,Mostly Cloudy,120,2013-08-17 21:36:00
4:53 PM,81.0,72.0,74,29.93,10.0,ESE,16.1,20.7,N/A,,Overcast,110,2013-08-17 21:53:00
5:04 PM,80.6,71.6,74,29.94,10.0,ESE,17.3,20.7,N/A,,Mostly Cloudy,110,2013-08-17 22:04:00
5:11 PM,80.6,71.6,74,29.94,10.0,ESE,16.1,-,N/A,,Mostly Cloudy,120,2013-08-17 22:11:00
5:53 PM,80.1,72.0,76,29.94,10.0,East,15.0,-,0.00,,Overcast,100,2013-08-17 22:53:00
6:01 PM,80.6,71.6,74,29.95,10.0,East,15.0,-,N/A,,Overcast,90,2013-08-17 23:01:00
6:34 PM,78.8,73.4,83,29.95,9.0,East,11.5,-,N/A,,Mostly Cloudy,90,2013-08-17 23:34:00
6:53 PM,78.1,72.0,81,29.93,10.0,ESE,11.5,-,0.01,,Mostly Cloudy,110,2013-08-17 23:53:00
7:03 PM,78.8,71.6,78,29.95,10.0,ESE,12.7,-,N/A,,Mostly Cloudy,110,2013-08-18 00:03:00
7:53 PM,78.1,73.0,84,29.94,9.0,East,11.5,-,0.00,Rain,Light Rain,90,2013-08-18 00:53:00
8:18 PM,77.0,73.4,89,29.96,10.0,ENE,17.3,-,0.00,,Scattered Clouds,70,2013-08-18 01:18:00
8:53 PM,77.0,73.0,88,29.93,10.0,East,11.5,-,0.00,,Partly Cloudy,90,2013-08-18 01:53:00
9:22 PM,78.8,73.4,83,29.95,10.0,ENE,11.5,-,N/A,,Mostly Cloudy,70,2013-08-18 02:22:00
9:53 PM,78.1,73.9,87,29.94,10.0,ENE,10.4,-,N/A,,Partly Cloudy,70,2013-08-18 02:53:00
10:41 PM,78.8,73.4,83,29.95,10.0,ENE,11.5,-,N/A,,Mostly Cloudy,60,2013-08-18 03:41:00
10:53 PM,79.0,73.9,84,29.93,10.0,NE,12.7,-,N/A,,Mostly Cloudy,50,2013-08-18 03:53:00
11:01 PM,78.8,73.4,83,29.95,10.0,NE,13.8,-,N/A,,Mostly Cloudy,40,2013-08-18 04:01:00
11:09 PM,78.8,73.4,83,29.95,10.0,NE,15.0,-,N/A,,Overcast,40,2013-08-18 04:09:00
11:21 PM,78.8,73.4,83,29.95,10.0,NE,11.5,-,N/A,,Overcast,50,2013-08-18 04:21:00
11:30 PM,78.8,73.4,83,29.95,6.0,ENE,15.0,-,0.00,Rain,Light Rain,60,2013-08-18 04:30:00
11:53 PM,77.0,73.9,90,29.94,10.0,NE,12.7,-,0.01,,Overcast,50,2013-08-18 04:53:00